EN

Hourly Weather Amasya

Today, 28 January, Thursday

Time Temperature Precipitation Wind Pressure Humidity
00:00 +5°C° 0.9 mm 3 mps 699 mmHg 68%
01:00 +4°C° 0.9 mm 3 mps 699 mmHg 78%
02:00 +3°C° 0.9 mm 3 mps 699 mmHg 89%
03:00 +3°C° 0.9 mm 3 mps 699 mmHg 89%
04:00 +3°C° 0.9 mm 3 mps 700 mmHg 89%
05:00 +3°C° 0.9 mm 3 mps 700 mmHg 89%
06:00 +3°C° 0.2 mm 3 mps 701 mmHg 82%
07:00 +3°C° 0.2 mm 3 mps 701 mmHg 74%
08:00 +3°C° 0.2 mm 3 mps 702 mmHg 66%
09:00 +3°C° 0 mm 5 mps 703 mmHg 60%
10:00 +3°C° 0 mm 6 mps 704 mmHg 54%
11:00 +4°C° 0 mm 7 mps 704 mmHg 48%
12:00 +4°C° 0 mm 7 mps 705 mmHg 47%
13:00 +4°C° 0 mm 6 mps 705 mmHg 45%
14:00 +4°C° 0 mm 6 mps 705 mmHg 43%
15:00 +4°C° 0 mm 4 mps 705 mmHg 48%
16:00 +3°C° 0 mm 3 mps 705 mmHg 52%
17:00 +4°C° 0 mm 1 mps 705 mmHg 57%
18:00 +4°C° 0 mm 1 mps 705 mmHg 62%
19:00 +4°C° 0 mm 1 mps 705 mmHg 67%
20:00 +3°C° 0 mm 1 mps 706 mmHg 73%
21:00 +3°C° 0.1 mm 1 mps 706 mmHg 77%
22:00 +3°C° 0.1 mm 1 mps 706 mmHg 81%
23:00 +3°C° 0.1 mm 1 mps 707 mmHg 85%

Tomorrow, 29 January, Friday

Time Temperature Precipitation Wind Pressure Humidity
00:00 +2°C° 0 mm 1 mps 707 mmHg 85%
01:00 +2°C° 0 mm 1 mps 706 mmHg 85%
02:00 +2°C° 0 mm 1 mps 706 mmHg 86%
03:00 +2°C° 0 mm 1 mps 707 mmHg 85%
04:00 +2°C° 0 mm 1 mps 707 mmHg 84%
05:00 +1°C° 0 mm 1 mps 707 mmHg 83%
06:00 +2°C° 0 mm 1 mps 707 mmHg 81%
07:00 +2°C° 0 mm 1 mps 707 mmHg 79%
08:00 +2°C° 0 mm 1 mps 707 mmHg 77%
09:00 +2°C° 0 mm 2 mps 707 mmHg 68%
10:00 +3°C° 0 mm 2 mps 707 mmHg 59%
11:00 +3°C° 0 mm 3 mps 707 mmHg 50%
12:00 +3°C° 0 mm 3 mps 707 mmHg 46%
13:00 +4°C° 0 mm 3 mps 707 mmHg 42%
14:00 +4°C° 0 mm 3 mps 707 mmHg 37%
15:00 +3°C° 0 mm 3 mps 707 mmHg 42%
16:00 +2°C° 0 mm 3 mps 707 mmHg 46%
17:00 +2°C° 0 mm 2 mps 707 mmHg 50%
18:00 +2°C° 0 mm 2 mps 707 mmHg 52%
19:00 +1°C° 0 mm 2 mps 707 mmHg 54%
20:00 +1°C° 0 mm 2 mps 708 mmHg 56%
21:00 +1°C° 0 mm 2 mps 708 mmHg 58%
22:00 +1°C° 0 mm 2 mps 708 mmHg 59%
23:00 -1°C° 0 mm 2 mps 708 mmHg 61%

Day after tomorrow, 30 January, Saturday

Time Temperature Precipitation Wind Pressure Humidity
00:00 -1°C° 0 mm 2 mps 708 mmHg 62%
01:00 -1°C° 0 mm 2 mps 708 mmHg 63%
02:00 -1°C° 0 mm 2 mps 708 mmHg 64%
03:00 -1°C° 0 mm 2 mps 707 mmHg 64%
04:00 -1°C° 0 mm 2 mps 707 mmHg 64%
05:00 -1°C° 0 mm 2 mps 707 mmHg 64%
06:00 -1°C° 0 mm 2 mps 707 mmHg 63%
07:00 -1°C° 0 mm 2 mps 707 mmHg 62%
08:00 +1°C° 0 mm 2 mps 707 mmHg 61%
09:00 +1°C° 0 mm 3 mps 706 mmHg 55%
10:00 +2°C° 0 mm 3 mps 706 mmHg 48%
11:00 +4°C° 0 mm 3 mps 705 mmHg 42%
12:00 +4°C° 0 mm 3 mps 705 mmHg 41%
13:00 +5°C° 0 mm 3 mps 704 mmHg 40%
14:00 +7°C° 0 mm 3 mps 703 mmHg 38%
15:00 +4°C° 0 mm 3 mps 703 mmHg 43%
16:00 +3°C° 0 mm 3 mps 702 mmHg 48%
17:00 +2°C° 0 mm 3 mps 702 mmHg 53%
18:00 +2°C° 0.1 mm 3 mps 702 mmHg 57%
19:00 +2°C° 0.1 mm 3 mps 702 mmHg 62%
20:00 +1°C° 0.1 mm 3 mps 702 mmHg 67%
21:00 +1°C° 0.5 mm 3 mps 701 mmHg 74%
22:00 +1°C° 0.5 mm 3 mps 701 mmHg 81%
23:00 0°C° 0.5 mm 4 mps 701 mmHg 89%

31 January, Sunday

Time Temperature Precipitation Wind Pressure Humidity
00:00 +1°C° 0.1 mm 3 mps 701 mmHg 89%
01:00 +1°C° 0.1 mm 3 mps 701 mmHg 89%
02:00 +2°C° 0.1 mm 2 mps 701 mmHg 89%
03:00 +2°C° 0.2 mm 2 mps 702 mmHg 90%
04:00 +2°C° 0.2 mm 2 mps 702 mmHg 92%
05:00 +2°C° 0.2 mm 2 mps 702 mmHg 93%
06:00 +2°C° 0 mm 2 mps 703 mmHg 92%
07:00 +3°C° 0 mm 2 mps 704 mmHg 91%
08:00 +3°C° 0 mm 2 mps 705 mmHg 90%
09:00 +4°C° 0 mm 2 mps 706 mmHg 87%
10:00 +5°C° 0 mm 2 mps 706 mmHg 85%
11:00 +5°C° 0 mm 2 mps 707 mmHg 82%
12:00 +6°C° 0 mm 2 mps 707 mmHg 79%
13:00 +7°C° 0 mm 2 mps 707 mmHg 77%
14:00 +8°C° 0 mm 2 mps 707 mmHg 74%
15:00 +7°C° 0 mm 2 mps 707 mmHg 77%
16:00 +6°C° 0 mm 2 mps 707 mmHg 79%
17:00 +6°C° 0 mm 2 mps 707 mmHg 82%
18:00 +5°C° 0 mm 2 mps 707 mmHg 83%
19:00 +5°C° 0 mm 2 mps 707 mmHg 83%
20:00 +5°C° 0 mm 2 mps 707 mmHg 84%
21:00 +4°C° 0 mm 2 mps 707 mmHg 84%
22:00 +4°C° 0 mm 2 mps 707 mmHg 84%
23:00 +4°C° 0 mm 2 mps 707 mmHg 83%

1 February, Monday

Time Temperature Precipitation Wind Pressure Humidity
00:00 +3°C° 0 mm 3 mps 707 mmHg 82%
01:00 +3°C° 0 mm 3 mps 707 mmHg 81%
02:00 +3°C° 0 mm 3 mps 707 mmHg 80%
03:00 +3°C° 0 mm 3 mps 707 mmHg 79%
04:00 +3°C° 0 mm 3 mps 707 mmHg 78%
05:00 +3°C° 0 mm 3 mps 706 mmHg 77%
06:00 +3°C° 0 mm 3 mps 707 mmHg 76%
07:00 +4°C° 0 mm 3 mps 707 mmHg 75%
08:00 +4°C° 0 mm 3 mps 707 mmHg 73%
09:00 +7°C° 0 mm 3 mps 707 mmHg 69%
10:00 +8°C° 0 mm 3 mps 708 mmHg 64%
11:00 +10°C° 0 mm 4 mps 708 mmHg 59%
12:00 +11°C° 0 mm 4 mps 707 mmHg 57%
13:00 +12°C° 0 mm 5 mps 707 mmHg 56%
14:00 +13°C° 0 mm 6 mps 707 mmHg 54%
15:00 +12°C° 0 mm 5 mps 707 mmHg 59%
16:00 +10°C° 0 mm 4 mps 707 mmHg 64%
17:00 +9°C° 0 mm 3 mps 707 mmHg 69%
18:00 +9°C° 0 mm 3 mps 707 mmHg 70%
19:00 +8°C° 0 mm 3 mps 708 mmHg 71%
20:00 +8°C° 0 mm 3 mps 708 mmHg 72%
21:00 +7°C° 0 mm 3 mps 709 mmHg 72%
22:00 +7°C° 0 mm 3 mps 709 mmHg 72%
23:00 +7°C° 0 mm 3 mps 709 mmHg 73%

2 February, Tuesday

Time Temperature Precipitation Wind Pressure Humidity
00:00 +7°C° 0 mm 3 mps 709 mmHg 73%
01:00 +7°C° 0 mm 3 mps 710 mmHg 74%
02:00 +5°C° 0 mm 3 mps 710 mmHg 74%
03:00 +6°C° 0 mm 2 mps 710 mmHg 75%
04:00 +6°C° 0 mm 2 mps 710 mmHg 75%
05:00 +6°C° 0 mm 2 mps 710 mmHg 76%
06:00 +6°C° 0 mm 2 mps 710 mmHg 75%
07:00 +6°C° 0 mm 2 mps 711 mmHg 74%
08:00 +6°C° 0 mm 2 mps 711 mmHg 73%
09:00 +8°C° 0 mm 2 mps 711 mmHg 67%
10:00 +10°C° 0 mm 2 mps 711 mmHg 62%
11:00 +12°C° 0 mm 2 mps 711 mmHg 56%
12:00 +13°C° 0 mm 2 mps 711 mmHg 54%
13:00 +14°C° 0 mm 2 mps 711 mmHg 52%
14:00 +14°C° 0 mm 2 mps 711 mmHg 50%
15:00 +13°C° 0 mm 2 mps 711 mmHg 55%
16:00 +12°C° 0 mm 2 mps 711 mmHg 59%
17:00 +10°C° 0 mm 2 mps 711 mmHg 64%
18:00 +9°C° 0 mm 2 mps 711 mmHg 67%
19:00 +9°C° 0 mm 2 mps 711 mmHg 70%
20:00 +8°C° 0 mm 2 mps 711 mmHg 73%
21:00 +7°C° 0 mm 2 mps 711 mmHg 74%
22:00 +7°C° 0 mm 2 mps 711 mmHg 75%
23:00 +7°C° 0 mm 2 mps 711 mmHg 76%
Show more